{"data":{"norad_id":59736,"epoch":"2026-05-25T05:01:29.923104Z","epoch_age_seconds":57189,"freshness":"FRESH","line1":"1 59736U 24090G   26145.20937411  .00000707  00000+0  35202-4 0  9999","line2":"2 59736  43.0018 111.2855 0001054 273.8660  86.2071 15.27577531115142","mean_motion":15.27577531,"eccentricity":0.0001054,"inclination_deg":43.0018,"raan_deg":111.2855,"arg_perigee_deg":273.866,"mean_anomaly_deg":86.2071,"bstar":3.5202e-5,"rev_number":11514,"period_min":94.266901075544,"perigee_km":482.33331933008,"apogee_km":483.77965891758,"semimajor_km":6861.1934891238,"source":"CELESTRAK","updated_at":"2026-05-25T13:38:19.051487Z"}}